Date String (YYYY-MM-DD hh:mm:ss) UTC,Instrument flags,Ambient pressure (hPa),Sample flow (lpm),Bypass flow (lpm),Sample temperature (°C),Ambient temperature (°C),ASC tube jacket temperature (°C),LED temperature (°C),Box temperature (°C),Sample RH (%),Span deviation,Mass concentration (μg/m³),Mass concentration (μg/m³),Mass concentration (μg/m³)
DateTimeUTC,F1_M11,P_M11,Q1_M11,Q2_M11,T1_M11,T2_M11,T3_M11,T4_M11,T5_M11,U1_M11,ZSPAN_M11,X0_M11,X2_M11,X1_M11
2022-01-10 23:00:00,,0835.7,5.01,0.00,29.7,28.9,00.0,38.7,31.4,05.3,0000.0,0010.47,0004.26,0003.47
2022-01-10 23:01:00,,0835.7,4.99,0.00,29.7,28.9,00.0,38.7,31.4,05.3,0000.0,0010.41,0004.24,0003.47
2022-01-10 23:02:00,,0835.7,5.00,0.00,29.7,28.9,00.0,38.7,31.3,05.2,0000.0,0010.31,0004.21,0003.47
2022-01-10 23:03:00,,0835.6,5.00,0.00,29.7,28.9,00.0,38.7,31.3,05.3,0000.0,0010.18,0004.20,0003.48
2022-01-10 23:04:00,,0835.6,4.99,0.00,29.7,28.9,00.0,38.7,31.3,05.4,0000.0,0010.06,0004.18,0003.48
2022-01-10 23:05:00,,0835.6,5.02,0.00,29.7,28.9,00.0,38.7,31.3,05.4,0000.0,0009.93,0004.21,0003.49
2022-01-10 23:06:00,,0835.6,5.00,0.00,29.7,28.9,00.0,38.7,31.3,05.4,0000.0,0009.62,0004.21,0003.50
2022-01-10 23:07:00,,0835.5,5.00,0.00,29.6,28.9,00.0,38.7,31.3,05.4,0000.0,0008.88,0004.17,0003.49
2022-01-10 23:08:00,,0835.6,5.01,0.00,29.6,28.9,00.0,38.7,31.3,05.4,0000.0,0008.55,0004.12,0003.49
2022-01-10 23:09:00,,0835.6,5.00,0.00,29.6,28.9,00.0,38.7,31.3,05.4,0000.0,0008.43,0004.10,0003.50
2022-01-10 23:10:00,,0835.5,5.00,0.00,29.6,28.8,00.0,38.6,31.3,05.7,0000.0,0008.29,0004.10,0003.52
2022-01-10 23:11:00,,0835.6,5.01,0.00,29.6,28.9,00.0,38.6,31.4,05.8,0000.0,0008.51,0004.13,0003.56
2022-01-10 23:12:00,,0835.6,5.00,0.00,29.6,28.9,00.0,38.6,31.4,05.9,0000.0,0008.98,0004.20,0003.61
2022-01-10 23:13:00,,0835.5,4.99,0.00,29.6,28.9,00.0,38.6,31.4,05.8,0000.0,0009.59,0004.26,0003.66
2022-01-10 23:14:00,,0835.5,5.01,0.00,29.7,28.9,00.0,38.6,31.4,05.6,0000.0,0009.62,0004.29,0003.69
2022-01-10 23:15:00,,0835.6,4.99,0.00,29.7,28.9,00.0,38.6,31.4,05.8,0000.0,0009.67,0004.32,0003.71
2022-01-10 23:16:00,,0835.5,5.01,0.00,29.7,28.9,00.0,38.6,31.4,05.8,0000.0,0009.61,0004.33,0003.73
2022-01-10 23:17:00,,0835.5,4.99,0.00,29.7,28.9,00.0,38.6,31.4,06.0,0000.0,0009.72,0004.37,0003.76
2022-01-10 23:18:00,,0835.5,5.01,0.00,29.7,28.9,00.0,38.6,31.4,06.1,0000.0,0010.32,0004.48,0003.84
2022-01-10 23:19:00,,0835.5,5.00,0.00,29.7,28.9,00.0,38.6,31.4,06.0,0000.0,0010.45,0004.59,0003.90
2022-01-10 23:20:00,,0835.5,5.00,0.00,29.7,28.9,00.0,38.6,31.4,05.8,0000.0,0011.11,0004.71,0003.97
2022-01-10 23:21:00,,0835.5,5.01,0.00,29.7,28.9,00.0,38.6,31.4,05.9,0000.0,0011.33,0004.76,0004.00
2022-01-10 23:22:00,,0835.5,4.99,0.00,29.7,29.0,00.0,38.6,31.5,05.9,0000.0,0011.70,0004.79,0004.03
2022-01-10 23:23:00,,0835.5,5.01,0.00,29.7,29.0,00.0,38.6,31.5,05.8,0000.0,0012.07,0004.87,0004.06
2022-01-10 23:24:00,,0835.5,5.00,0.00,29.7,29.0,00.0,38.6,31.5,05.7,0000.0,0011.83,0004.91,0004.07
2022-01-10 23:25:00,,0835.5,4.99,0.00,29.7,29.0,00.0,38.6,31.4,05.7,0000.0,0011.99,0004.96,0004.07
2022-01-10 23:26:00,,0835.5,5.01,0.00,29.7,29.0,00.0,38.6,31.4,05.7,0000.0,0012.41,0005.00,0004.05
2022-01-10 23:27:00,,0835.4,4.99,0.00,29.7,29.0,00.0,38.6,31.4,05.7,0000.0,0012.49,0005.02,0004.02
2022-01-10 23:28:00,,0835.4,4.99,0.00,29.7,29.0,00.0,38.6,31.4,05.8,0000.0,0012.39,0004.99,0004.00
2022-01-10 23:29:00,,0835.4,4.98,0.00,29.7,29.0,00.0,38.6,31.4,05.8,0000.0,0012.03,0005.01,0003.99
2022-01-10 23:30:00,,0835.4,4.98,0.00,29.7,29.0,00.0,38.6,31.4,05.7,0000.0,0012.15,0005.02,0003.98
2022-01-10 23:31:00,,0835.5,5.01,0.00,29.7,29.0,00.0,38.6,31.5,05.7,0000.0,0011.85,0005.00,0003.96
2022-01-10 23:32:00,,0835.5,4.99,0.00,29.7,29.0,00.0,38.6,31.5,05.7,0000.0,0012.01,0004.97,0003.95
2022-01-10 23:33:00,,0835.5,4.98,0.00,29.7,29.0,00.0,38.6,31.5,05.8,0000.0,0011.91,0005.00,0003.94
2022-01-10 23:34:00,,0835.5,5.01,0.00,29.7,29.0,00.0,38.7,31.5,05.8,0000.0,0011.33,0004.98,0003.92
2022-01-10 23:35:00,,0835.5,4.99,0.00,29.7,29.0,00.0,38.7,31.5,05.8,0000.0,0011.18,0004.94,0003.91
2022-01-10 23:36:00,,0835.5,5.00,0.00,29.8,29.0,00.0,38.7,31.5,05.8,0000.0,0010.79,0004.89,0003.92
2022-01-10 23:37:00,,0835.5,5.00,0.00,29.8,29.0,00.0,38.7,31.5,06.0,0000.0,0010.40,0004.89,0003.96
2022-01-10 23:38:00,,0835.5,4.99,0.00,29.8,29.0,00.0,38.7,31.5,05.9,0000.0,0010.75,0004.91,0004.02
2022-01-10 23:39:00,,0835.5,5.01,0.00,29.8,29.0,00.0,38.7,31.5,05.9,0000.0,0011.06,0004.92,0004.03
2022-01-10 23:40:00,,0835.5,4.99,0.00,29.8,29.0,00.0,38.7,31.5,06.0,0000.0,0010.68,0004.84,0003.99
2022-01-10 23:41:00,,0835.5,5.01,0.00,29.8,29.0,00.0,38.7,31.5,06.1,0000.0,0010.58,0004.81,0003.96
2022-01-10 23:42:00,,0835.4,4.98,0.00,29.8,29.0,00.0,38.7,31.5,06.3,0000.0,0010.70,0004.84,0003.97
2022-01-10 23:43:00,,0835.4,5.00,0.00,29.8,29.0,00.0,38.7,31.5,06.4,0000.0,0011.01,0004.94,0004.01
2022-01-10 23:44:00,,0835.4,5.00,0.00,29.8,29.0,00.0,38.7,31.5,06.5,0000.0,0010.90,0005.02,0004.03
2022-01-10 23:45:00,,0835.4,5.01,0.00,29.8,29.0,00.0,38.7,31.5,06.5,0000.0,0011.14,0005.07,0004.06
2022-01-10 23:46:00,,0835.4,5.00,0.00,29.7,29.0,00.0,38.7,31.5,06.4,0000.0,0011.32,0005.11,0004.07
2022-01-10 23:47:00,,0835.4,5.00,0.00,29.7,28.9,00.0,38.7,31.4,06.3,0000.0,0011.71,0005.19,0004.09
2022-01-10 23:48:00,,0835.4,4.99,0.00,29.7,28.9,00.0,38.7,31.4,06.2,0000.0,0012.49,0005.19,0004.09
2022-01-10 23:49:00,,0835.4,5.01,0.00,29.7,28.9,00.0,38.7,31.4,06.1,0000.0,0012.43,0005.18,0004.06
2022-01-10 23:50:00,,0835.4,5.01,0.00,29.7,28.9,00.0,38.7,31.4,06.1,0000.0,0012.02,0005.17,0004.06
2022-01-10 23:51:00,,0835.4,4.99,0.00,29.7,28.9,00.0,38.7,31.4,06.0,0000.0,0012.17,0005.19,0004.09
2022-01-10 23:52:00,,0835.3,5.01,0.00,29.7,28.9,00.0,38.7,31.4,05.9,0000.0,0014.26,0005.20,0004.12
2022-01-10 23:53:00,,0835.3,4.98,0.00,29.7,28.9,00.0,38.7,31.4,05.9,0000.0,0016.09,0005.16,0004.11
2022-01-10 23:54:00,,0835.3,5.01,0.00,29.7,28.8,00.0,38.6,31.3,05.9,0000.0,0015.76,0005.04,0004.06
2022-01-10 23:55:00,,0835.3,4.99,0.00,29.6,28.8,00.0,38.6,31.3,05.9,0000.0,0015.95,0004.96,0004.02
2022-01-10 23:56:00,,0835.2,5.00,0.00,29.6,28.8,00.0,38.6,31.3,05.9,0000.0,0016.60,0004.87,0004.00
2022-01-10 23:57:00,,0835.2,5.01,0.00,29.6,28.8,00.0,38.6,31.3,05.9,0000.0,0017.01,0004.81,0003.97
2022-01-10 23:58:00,,0835.2,4.99,0.00,29.6,28.8,00.0,38.6,31.3,05.9,0000.0,0017.16,0004.78,0003.95
2022-01-10 23:59:00,,0835.2,5.01,0.00,29.6,28.8,00.0,38.6,31.3,05.9,0000.0,0017.13,0004.87,0003.96
